Current weather by "City, St" or "zip code"  
 
Advertise Here

Current Conditions: Conroe, Montgomery County Airport, TX

Overcast


72.0 F

Last Updated on Jan 25 2021, 2:53 am CST
Humidity: 82%
Wind Speed: S 15.0 mph
Barometer 29.73 in
Dewpoint: 66.0 F
Visibility: 10.00 mi
Precip: --
Heat Index: NA
Wind Chill: NA
Current conditions at:

Conroe, Montgomery County Airport, TX (KCXO)

Lat: 30.35667 Lon: 95.41389

Local Radar Image active severe weather and emergency alerts image image weather storm and storm spotter reports image weather observation monitoring service image
Local
Radar
Active
Alerts
Storm Reports Obs
Monitoring

Sign-up For Email & Text Message Weather Alert Notification Services


Advertise Here

Observation History for Conroe, Montgomery County Airport, TX


Time Wind
(mph)
Vis
(mi)
Weather Precip (in) Temperature (F) Relative
Humidity
Wind
Chill
(F)
Heat
Index
(F)
Pressure
Air Dwpt altimeter
(in)
sea level
(mb)
Rmks
2:53 am CST S 15.0 10.00 Overcast -- 72.0 66.0 82% NA NA 29.73 1006.5
1:53 am CST S 16.1 G 24.2 10.00 Overcast -- 72.0 66.9 84% NA NA 29.74 1006.8
12:53 am CST S 12.7 10.00 Overcast -- 72.0 68.0 87% NA NA 29.76 1007.4
11:53 pm CST S 12.7 9.00 Overcast -- 71.0 68.0 90% NA NA 29.78 1008.0
10:53 pm CST SE 18.4 G 23.0 8.00 Overcast Trace 70.0 66.9 90% NA NA 29.78 1008.2
9:53 pm CST SE 12.7 G 19.6 8.00 Overcast Trace 70.0 66.9 90% NA NA 29.80 1008.8
8:53 pm CST SE 13.8 9.00 Light Rain Trace 70.0 66.0 87% NA NA 29.82 1009.6
7:53 pm CST SE 12.7 10.00 Overcast -- 70.0 64.9 84% NA NA 29.82 1009.5
6:53 pm CST S 15.0 10.00 Overcast -- 71.0 64.9 81% NA NA 29.83 1009.8
5:53 pm CST SE 15.0 10.00 Mostly Cloudy -- 72.0 64.9 79% NA NA 29.84 1010.3
4:53 pm CST SE 13.8 10.00 Overcast -- 74.0 66.0 76% NA NA 29.85 1010.6
3:53 pm CST SE 13.8 10.00 Mostly Cloudy -- 76.0 66.0 72% NA NA 29.86 1010.9
2:53 pm CST SE 12.7 10.00 Mostly Cloudy -- 77.0 66.9 71% NA NA 29.87 1011.1
1:53 pm CST S 11.5 5.00 Overcast with Haze -- 75.0 68.0 79% NA NA 29.89 1011.8
12:53 pm CST S 9.2 1.50 Fog/Mist -- 69.0 68.0 96% NA NA 29.92 1012.9
11:53 am CST SE 4.6 0.75 Fog/Mist -- 67.0 66.0 97% NA NA 29.97 1014.6
10:53 am CST E 3.5 0.50 Fog -- 66.0 64.9 96% NA NA 29.98 1015.0
8:53 am CST SE 6.9 0.25 Fog -- 63.0 62.1 97% 63 NA 29.96 1014.3
7:53 am CST SE 6.9 0.25 Fog -- 62.0 61.0 96% 62 NA 29.97 1014.7
6:53 am CST E 4.6 0.25 Fog -- 62.0 61.0 96% 62 NA 29.98 1015.0
5:53 am CST N 0.0 0.25 Fog -- 62.0 61.0 96% NA NA 29.98 1015.0
4:53 am CST N 0.0 0.50 Fog -- 62.0 61.0 96% NA NA 29.97 1014.6
3:53 am CST SE 3.5 0.75 Fog/Mist -- 62.0 60.1 93% NA NA 29.97 1014.5

Regional Weather Observation


Conroe, Montgomery County Airport, TX (KCXO)

Overcast
72.0 F

Houston, Hooks Memorial Airport, TX (KDWH)

Overcast
72.0 F

Cleveland, TX (K6R3)

Overcast
70.0 F

Houston Intercontinental Airport, TX (KIAH)

Mostly Cloudy
72.0 F

Bryan Coulter Field, TX (KCFD)

Overcast
72.0 F

College Station, Easterwood Field, TX (KCLL)

Overcast
72.0 F